Location: Joplin, MO
(37.0842°N, 94.5133°W)
Time: 21:13:02
(UTC+02:00)

Courier 1B Rocket - Pass Details

Date: 31 March 2023
Orbit: 920 x 1202 km, 28.2° (Epoch: 05 June)

Event Time Altitude Azimuth Distance (km) Brightness Sun altitude
Rises 07:19:02 0° 262° (W) 3,766 - -46.3°
Reaches altitude 10° 07:22:47 10° 244° (WSW) 2,756 - -46.6°
Maximum altitude 07:26:52 17° 205° (SSW) 2,221 - -46.9°
Drops below altitude 10° 07:30:50 10° 166° (SSE) 2,652 - -47.1°
Sets 07:34:21 0° 147° (SSE) 3,564 - -47.4°
